DLH14U EDDM-LPPR

Flight info

Callsign DLH14U
Flight time N/A
Altitude 41000
Route ALG2S ALG Y109 UMTEX Y100 TRA DCT LUTIX DCT BENOT DCT NEMOS DCT NINTU DCT MEBAK DCT REPSI DCT LERGA DCT MINSO DCT NARAK DCT AGN DCT PIPOR L866 PPN N976 ZMR L155 ADORO DCT INKIT
Aircraft A359/H-SDE2E3GHIJ3J4J5LM1ORWXY/LB1D1

Departure

Time N/A
Airport Munich Airport (EDDM)

Arrival

Time 2026-05-06 20:42
Airport Francisco de Sá Carneiro Airport (LPPR)
Time Latitude Longitude Altitude Speed Heading
2026-05-06 20:11 41.52553 -5.70455 40920 ft 462 kts 262°
2026-05-06 20:11 41.52194 -5.74722 40922 ft 463 kts 263°
2026-05-06 20:12 41.51589 -5.83287 40916 ft 464 kts 264°
2026-05-06 20:12 41.51003 -5.91810 40920 ft 464 kts 264°
2026-05-06 20:13 41.50388 -6.00384 40920 ft 464 kts 264°
2026-05-06 20:13 41.49751 -6.08955 40923 ft 464 kts 263°
2026-05-06 20:14 41.49178 -6.16580 40907 ft 461 kts 263°
2026-05-06 20:14 41.48860 -6.20774 40906 ft 448 kts 263°
2026-05-06 20:14 41.48548 -6.24886 40520 ft 443 kts 263°
2026-05-06 20:15 41.48071 -6.28946 39845 ft 444 kts 257°
2026-05-06 20:15 41.47385 -6.32979 39101 ft 448 kts 256°
2026-05-06 20:15 41.46663 -6.37041 38275 ft 453 kts 256°
2026-05-06 20:15 41.45923 -6.41148 37236 ft 458 kts 256°
2026-05-06 20:16 41.45171 -6.45299 36280 ft 463 kts 255°
2026-05-06 20:16 41.44413 -6.49475 35500 ft 464 kts 255°
2026-05-06 20:16 41.43653 -6.53650 34761 ft 463 kts 255°
2026-05-06 20:16 41.42891 -6.57817 34001 ft 463 kts 255°
2026-05-06 20:17 41.42126 -6.61990 33108 ft 463 kts 255°
2026-05-06 20:17 41.41366 -6.66130 32600 ft 456 kts 255°
2026-05-06 20:17 41.40741 -6.70227 32198 ft 449 kts 263°
2026-05-06 20:17 41.40890 -6.74385 31314 ft 456 kts 279°
2026-05-06 20:18 41.41723 -6.78442 30906 ft 450 kts 284°
2026-05-06 20:18 41.42535 -6.82409 30696 ft 437 kts 281°
2026-05-06 20:18 41.43052 -6.86383 30100 ft 434 kts 273°
2026-05-06 20:18 41.43207 -6.90385 29476 ft 430 kts 267°
2026-05-06 20:19 41.43086 -6.94331 29097 ft 421 kts 263°
2026-05-06 20:19 41.42918 -6.96879 28925 ft 414 kts 262°
2026-05-06 20:19 41.42600 -7.00641 28672 ft 404 kts 261°
2026-05-06 20:19 41.42140 -7.05523 28353 ft 391 kts 260°
2026-05-06 20:20 41.41917 -7.07881 28191 ft 384 kts 260°
2026-05-06 20:20 41.41593 -7.11383 27870 ft 378 kts 261°
2026-05-06 20:20 41.41186 -7.15953 27306 ft 373 kts 261°
2026-05-06 20:20 41.40985 -7.18267 26988 ft 371 kts 261°
2026-05-06 20:21 41.40693 -7.21671 26560 ft 369 kts 261°
2026-05-06 20:21 41.40406 -7.25049 26145 ft 366 kts 261°
2026-05-06 20:21 41.40121 -7.28407 25707 ft 364 kts 261°
2026-05-06 20:21 41.39831 -7.31736 25384 ft 359 kts 261°
2026-05-06 20:22 41.39544 -7.35009 25044 ft 354 kts 261°
2026-05-06 20:22 41.39257 -7.38258 24637 ft 352 kts 261°
2026-05-06 20:22 41.38972 -7.41448 24257 ft 350 kts 261°
2026-05-06 20:22 41.38680 -7.44695 23868 ft 347 kts 261°
2026-05-06 20:23 41.38395 -7.47833 23464 ft 345 kts 261°
2026-05-06 20:23 41.38106 -7.50998 22988 ft 343 kts 261°
2026-05-06 20:23 41.37818 -7.54141 22521 ft 341 kts 261°
2026-05-06 20:23 41.37529 -7.57275 22080 ft 339 kts 261°
2026-05-06 20:24 41.37241 -7.60386 21650 ft 337 kts 261°
2026-05-06 20:24 41.36662 -7.63381 21166 ft 333 kts 243°
2026-05-06 20:24 41.35407 -7.65942 20728 ft 330 kts 230°
2026-05-06 20:24 41.33968 -7.68303 20284 ft 328 kts 229°
2026-05-06 20:25 41.32511 -7.70635 19865 ft 326 kts 229°
2026-05-06 20:25 41.31065 -7.72943 19455 ft 324 kts 229°
2026-05-06 20:25 41.29624 -7.75239 19044 ft 322 kts 229°
2026-05-06 20:25 41.28191 -7.77520 18641 ft 320 kts 229°
2026-05-06 20:26 41.26762 -7.79788 18233 ft 319 kts 229°
2026-05-06 20:26 41.25338 -7.82045 17782 ft 317 kts 229°
2026-05-06 20:26 41.23922 -7.84283 17323 ft 315 kts 229°
2026-05-06 20:26 41.22534 -7.86487 16597 ft 309 kts 229°
2026-05-06 20:27 41.21157 -7.88683 15763 ft 309 kts 229°
2026-05-06 20:27 41.19783 -7.90870 15101 ft 307 kts 229°
2026-05-06 20:27 41.18424 -7.93031 14484 ft 303 kts 229°
2026-05-06 20:27 41.17079 -7.95163 13833 ft 301 kts 229°
2026-05-06 20:28 41.15739 -7.97282 13105 ft 299 kts 229°
2026-05-06 20:28 41.14414 -7.99388 12448 ft 295 kts 229°
2026-05-06 20:28 41.13113 -8.01471 11798 ft 292 kts 229°
2026-05-06 20:28 41.11845 -8.03513 11154 ft 289 kts 229°
2026-05-06 20:29 41.10570 -8.05576 10596 ft 289 kts 228°
2026-05-06 20:29 41.09287 -8.07660 10228 ft 287 kts 229°
2026-05-06 20:29 41.08049 -8.09677 9836 ft 284 kts 228°
2026-05-06 20:29 41.06795 -8.11727 9488 ft 282 kts 228°
2026-05-06 20:30 41.05578 -8.13721 9229 ft 282 kts 228°
2026-05-06 20:30 41.03150 -8.17781 8702 ft 280 kts 228°
2026-05-06 20:30 41.01942 -8.19806 8450 ft 279 kts 229°
2026-05-06 20:31 41.00744 -8.21832 8182 ft 278 kts 229°
2026-05-06 20:31 40.99547 -8.23845 7930 ft 278 kts 229°
2026-05-06 20:31 40.98347 -8.25849 7677 ft 278 kts 229°
2026-05-06 20:31 40.97142 -8.27848 7430 ft 277 kts 229°
2026-05-06 20:32 40.95947 -8.29842 7181 ft 277 kts 228°
2026-05-06 20:32 40.94758 -8.31841 6948 ft 276 kts 227°
2026-05-06 20:32 40.93558 -8.33831 6695 ft 276 kts 228°
2026-05-06 20:32 40.92353 -8.35807 6544 ft 275 kts 229°
2026-05-06 20:33 40.91144 -8.37764 6432 ft 274 kts 229°
2026-05-06 20:33 40.89944 -8.39719 6300 ft 274 kts 230°
2026-05-06 20:33 40.88966 -8.41889 6055 ft 276 kts 246°
2026-05-06 20:33 40.88591 -8.44360 5748 ft 276 kts 270°
2026-05-06 20:34 40.89068 -8.46789 5468 ft 275 kts 298°
2026-05-06 20:34 40.89984 -8.48989 5208 ft 272 kts 298°
2026-05-06 20:34 40.90959 -8.51111 4944 ft 268 kts 303°
2026-05-06 20:34 40.92030 -8.53080 4792 ft 262 kts 308°
2026-05-06 20:35 40.93211 -8.54891 4575 ft 264 kts 314°
2026-05-06 20:35 40.94538 -8.56550 4356 ft 257 kts 318°
2026-05-06 20:35 40.95758 -8.58188 4262 ft 243 kts 313°
2026-05-06 20:35 40.96877 -8.59780 4160 ft 228 kts 316°
2026-05-06 20:36 40.98150 -8.60876 4091 ft 211 kts 336°
2026-05-06 20:36 40.99492 -8.61447 4027 ft 196 kts 346°
2026-05-06 20:36 41.00806 -8.61816 3999 ft 191 kts 348°
2026-05-06 20:36 41.02102 -8.62161 3991 ft 189 kts 348°
2026-05-06 20:37 41.03399 -8.62508 3999 ft 191 kts 349°
2026-05-06 20:37 41.04685 -8.62843 3934 ft 184 kts 349°
2026-05-06 20:37 41.05909 -8.63154 3764 ft 177 kts 349°
2026-05-06 20:37 41.07113 -8.63469 3489 ft 176 kts 349°
2026-05-06 20:38 41.08305 -8.63785 3238 ft 172 kts 349°
2026-05-06 20:38 41.09469 -8.64090 2980 ft 169 kts 349°
2026-05-06 20:38 41.10603 -8.64389 2759 ft 163 kts 349°
2026-05-06 20:38 41.11694 -8.64676 2540 ft 156 kts 349°
2026-05-06 20:39 41.12724 -8.64947 2358 ft 147 kts 349°
2026-05-06 20:39 41.13693 -8.65202 2153 ft 137 kts 349°
2026-05-06 20:39 41.14603 -8.65441 1954 ft 131 kts 349°
2026-05-06 20:39 41.15490 -8.65673 1801 ft 130 kts 350°
2026-05-06 20:40 41.16383 -8.65896 1663 ft 132 kts 349°
2026-05-06 20:40 41.17279 -8.66140 1484 ft 132 kts 349°
2026-05-06 20:40 41.18174 -8.66378 1281 ft 130 kts 349°
2026-05-06 20:40 41.19060 -8.66614 1098 ft 130 kts 348°
2026-05-06 20:41 41.19938 -8.66841 937 ft 131 kts 349°
2026-05-06 20:41 41.20835 -8.67080 768 ft 131 kts 348°
2026-05-06 20:41 41.21722 -8.67318 595 ft 130 kts 348°
2026-05-06 20:41 41.22622 -8.67553 417 ft 133 kts 347°
2026-05-06 20:42 41.23525 -8.67790 257 ft 132 kts 349°
2026-05-06 20:42 41.24372 -8.68011 222 ft 107 kts 349°
2026-05-06 20:42 41.24918 -8.68155 209 ft 52 kts 348°
2026-05-06 20:42 41.25169 -8.68152 196 ft 33 kts 15°
2026-05-06 20:43 41.25290 -8.68086 200 ft 8 kts 50°
2026-05-06 20:43 41.25283 -8.68034 200 ft 5 kts 134°
2026-05-06 20:43 41.25214 -8.67996 205 ft 19 kts 163°
2026-05-06 20:43 41.25063 -8.67961 206 ft 22 kts 170°
2026-05-06 20:44 41.24909 -8.67917 215 ft 22 kts 161°
2026-05-06 20:44 41.24776 -8.67836 219 ft 19 kts 159°
2026-05-06 20:44 41.24651 -8.67797 220 ft 18 kts 169°
2026-05-06 20:44 41.24534 -8.67766 224 ft 17 kts 169°
2026-05-06 20:45 41.24415 -8.67736 232 ft 17 kts 169°
2026-05-06 20:45 41.24310 -8.67698 237 ft 14 kts 151°
2026-05-06 20:45 41.24245 -8.67603 242 ft 14 kts 127°
2026-05-06 20:45 41.24183 -8.67506 246 ft 10 kts 139°
2026-05-06 20:46 41.24176 -8.67499 247 ft 0 kts 143°
2026-05-06 20:46 41.24163 -8.67475 248 ft 5 kts 113°
2026-05-06 20:46 41.24162 -8.67430 249 ft 4 kts 83°
2026-05-06 20:46 41.24168 -8.67392 251 ft 4 kts 79°
2026-05-06 20:47 41.24169 -8.67380 251 ft 0 kts 79°